Погода в Воронцовской

Россия / Краснодарский край     45°13′12″N   38°44′13″E
темп.,
°C
ветер,
м/с
пор.,
м/с
влажн.,
%
обл.,
%
осадки,
мм/ч
давл.,
гПа
погр.,
м
21 апреля, ср
ср2100:00+10юз9168027 0.0 1013947
03:00+9юз714862 0.0 1015513
06:00+9ююз41085100 0.0 1016363
09:00+12юз4774100 0.0 1018501
12:00+16зюз556068 0.2 10191473
15:00+16зюз565381 0.3 10181804
18:00+15з47665 0.1 1019411
21:00+9з338680 0.1 102148
22 апреля, чт
чт2200:00+8з228985 0.0 102111
03:00+7зсз1190100 0.0 102210
06:00+7сз119099 0.0 102211
09:00+12сз117382 0.0 1023383
12:00+16с215637 0.0 10231117
15:00+18сз224868 0.0 10221753
18:00+14зсз5773100 0.1 1022377
21:00+10сз238612 0.1 102436
23 апреля, пт
пт2300:00+9з22850 0.0 102311
03:00+7зюз22900 0.0 102431
06:00+7ююз22840 0.0 102416
09:00+13ю226216 0.0 1024456
12:00+17юз33520 0.0 10231353
15:00+19з2445100 0.0 10212041
18:00+17ююз3563100 0.0 1020139
21:00+13з2271100 0.0 102041
24 апреля, сб
сб2400:00+11сз2278100 0.0 102022
03:00+10юз347137 0.0 102068
06:00+10зюз23728 0.0 101880
09:00+14зюз46640 0.0 1019701
12:00+18з57514 0.0 10191694
15:00+17з795646 0.0 10191686
18:00+14зсз677293 0.1 1020724
21:00+9з3778100 0.1 1021163
25 апреля, вс
вс2500:00+8зсз3671100 0.0 1022119
03:00+7с228088 0.0 102223
06:00+6с2275100 0.0 102227
09:00+10ссв3358100 0.0 1022684
12:00+12ссв3250100 0.0 10211177
15:00+12в2253100 0.0 10201259
18:00+10в3371100 0.0 1019514
21:00+8вюв2388100 0.1 1019193